Regional Weather Roundup
Issued by NWS

Home | Current Version | Previous Version | Text Only | Print | Product List | Glossary On
Versions: 1 2 3 4 5 6 7 8 9 10 11 12 13 14 15 16 17 18 19 20 21 22 23 24 25 26 27 28 29 30 31 32 33 34 35 36 37 38 39 40 41 42 43 44 45 46 47 48 49 50
000
ASUS45 KCYS 030810
RWRWY

WYOMING REGIONAL WEATHER ROUNDUP
NATIONAL WEATHER SERVICE CHEYENNE WY
200 AM MDT TUE MAY 03 2016

NOTE:  "FAIR" INDICATES FEW OR NO CLOUDS BELOW 12,000 FEET
WITH NO SIGNIFICANT WEATHER AND/OR OBSTRUCTIONS TO VISIBILITY.

WYZ001-030900-
YELLOWSTONE NATIONAL PARK

CITY           SKY/WX    TMP DP  RH WIND       PRES   REMARKS
LK YELLOWSTONE   N/A     28  22  78 CALM      30.32S
W YELLOWSTONE  NOT AVBL

$$
WYZ002>013-054>058-071-098>099-030900-
NORTHERN WYOMING

CITY           SKY/WX    TMP DP  RH WIND       PRES   REMARKS
JACKSON        FAIR      32  27  80 N8        30.26S WCI  25
CODY           FAIR      46  30  53 SW7       30.18F
GREYBULL       FAIR      47  30  51 W6        30.14R
WORLAND        FAIR      43  35  73 S7        30.14S
SHERIDAN       FAIR      43  33  68 S3        30.14S
BUFFALO          N/A    N/A N/A N/A MISG      30.17F
GILLETTE       FAIR      45  36  70 W14       30.12S
HULETT         FAIR      37  34  87 S9        30.11F WCI  31
NEWCASTLE      FAIR      41  32  70 NW5       30.12S

$$
WYZ014>020-022>026-101>103-030900-
CENTRAL WYOMING

CITY           SKY/WX    TMP DP  RH WIND       PRES   REMARKS
BIG PINEY      FAIR      32  18  56 N6        30.27R WCI  26
PINEDALE       FAIR      28  23  80 W3        30.28S
DUBOIS         FAIR      34  23  64 W7        30.28S WCI  28
LANDER         FAIR      42  28  57 E5        30.20R
RIVERTON       FAIR      42  33  70 CALM      30.21S
CASPER         FAIR      35  30  82 SW7       30.19F WCI  29
DOUGLAS        FAIR      38  33  82 N5        30.17S WCI  34

$$
WYZ021-027>030-104>119-030900-
SOUTHERN WYOMING

CITY           SKY/WX    TMP DP  RH WIND       PRES   REMARKS
EVANSTON       FAIR      40  25  55 S5        30.27S
KEMMERER         N/A     36  21  55 NW6       30.26S WCI  31
FORT BRIDGER   SUNNY     41  23  48 W9        30.29S
ROCK SPRINGS   FAIR      41  20  43 CALM      30.26S
DIXON          FAIR      32  22  68 NE3       30.27S
RAWLINS        FAIR      31  24  75 NW6       30.24S WCI  25
SARATOGA       FAIR      28  23  80 CALM      30.25S
LARAMIE        FAIR      30  24  78 W3        30.22S
CHEYENNE       FAIR      43  27  53 NW15      30.16S
TORRINGTON     CLOUDY    44  35  70 NW10      30.09S
PINE BLUFFS    CLOUDY    41  32  70 NW12      30.14S

$$



USA.gov is the U.S. government's official web portal to all federal, state and local government web resources and services.